Orbital Elements at Epoch 2459200.5 (2020-Dec-17.0) TDB
Reference: JPL 20 (heliocentric ecliptic J2000)
Element | Value | Uncertainty (1-sigma) | Units |
e | .09313553620044053 | 5.1025e-08 | |
a | 2.262509468312881 | 8.076e-09 | au |
q | 2.051789435822987 | 1.1461e-07 | au |
i | 6.090215612209477 | 4.1345e-06 | deg |
node | 96.69947199543206 | 4.5075e-05 | deg |
peri | 47.81225927594129 | 5.0556e-05 | deg |
M | 344.2403157120809 | 2.2022e-05 | deg |
tp | 2459254.916304799647 (2021-Feb-09.41630480) | 7.6105e-05 | TDB |
period | 1243.036939698709 3.40 | 6.6555e-06 1.822e-08 | d yr |
n | .2896132757625511 | 1.5507e-09 | deg/d |
Q | 2.473229500802774 | 8.8282e-09 | au |
|
| | Orbit Determination Parameters
Additional Information
|